Flag for Brazil Weather past 2 weeks in Brasilia, Distrito Federal, Brazil

Now
82 °F

Sunny.


Feels Like: 82 °F
Forecast: 65 / 90 °F
Wind: 5 mph from Southwest

Location: Brasilia Aeroporto

Current Time: Sep 21, 2014 at 12:07:38 PM

Latest Report: Sep 21, 2014 at 11:00 AM


Visibility: 10 mi

Pressure: 30.09 "Hg

Humidity: 40%

Dew point: 55 °F

Location of BrasiliaLocation

Historic Weather in Brasilia — Graph

°F

Brasilia temperature yesterday

Maximum temperature yesterday: 91 °F (at 3:00 PM)
Minimum temperature yesterday: 55 °F (at 4:00 AM)
Average temperature yesterday: 77 °F

Past Weeks' High & Low Weather Summary

 TemperatureHumidityPressure
High93 °F (Sep 17, 3:00 PM)77% (Sep 20, 4:00 AM)30.27 "Hg (Sep 20, 4:00 AM)
Low55 °F (Sep 20, 4:00 AM)13% (Sep 11, 4:00 PM)30.01 "Hg (Sep 12, 4:00 PM)
Average76 °F37%30.11 "Hg
* Reported Sep 6 11:00 AM — Sep 21 11:00 AM, Brasilia, Weather by CustomWeather, © 2014

Note: Actual official high and low records may vary slightly from our data, if they occured in-between our weather recording intervals... More about our weather records

Advertising

Brasilia weather history for previous 24 hours

 ConditionsComfort  
Time TempWeatherWind HumidityBarometerVisibility
11:00 AM
Sep 21
82 °FSunny.5 mph40%30.09 "Hg10 mi
10:00 AM79 °FSunny.7 mph48%30.12 "Hg10 mi
9:00 AM75 °FSunny.6 mph57%30.15 "Hg10 mi
8:00 AM72 °FScattered clouds.6 mph69%30.15 "HgN/A
7:10 AM70 °FBroken clouds.6 mph73%30.12 "HgN/A
7:00 AM70 °FSunny.6 mph73%30.12 "Hg10 mi
6:00 AM70 °FClear.7 mph73%30.12 "Hg10 mi
5:00 AM70 °FClear.5 mph73%30.09 "Hg10 mi
4:00 AM70 °FClear.10 mph73%30.07 "Hg10 mi
3:00 AM72 °FClear.3 mph65%30.07 "Hg10 mi
2:00 AM72 °FClear.6 mph61%30.07 "Hg10 mi
1:00 AM75 °FClear.8 mph47%30.09 "Hg10 mi
12:00 AM77 °FClear.5 mph42%30.09 "Hg10 mi
11:00 PM
Sep 20
79 °FClear.No wind39%30.09 "Hg10 mi
10:00 PM79 °FClear.7 mph37%30.12 "Hg10 mi
9:00 PM81 °FClear.5 mph34%30.09 "Hg10 mi
8:00 PM84 °FClear.No wind35%30.07 "Hg10 mi
7:00 PM86 °FClear.3 mph27%30.04 "Hg10 mi
6:00 PM88 °FPassing clouds.5 mph21%30.01 "HgN/A
5:00 PM90 °FPassing clouds.8 mph20%30.01 "HgN/A
4:00 PM90 °FScattered clouds.7 mph20%30.01 "HgN/A
3:00 PM91 °FPassing clouds.6 mph18%30.01 "HgN/A
Weather by CustomWeather, © 2014

See weather overviewHow to use our weather pages